Regional Weather Roundup
Issued by NWS Kansas City/Pleasant Hill, MO

Home | Current Version | Previous Version | Graphics & Text | Print | Product List | Glossary Off
Versions: 1 2 3 4 5 6 7 8 9 10 11 12 13 14 15 16 17 18 19 20 21 22 23 24 25 26 27 28 29 30 31 32 33 34 35 36 37 38 39 40 41 42 43 44 45 46 47 48 49 50

000
ASUS43 KEAX 301210
RWREAX

WEATHER ROUNDUP FOR EASTERN KANSAS AND NORTHWEST MISSOURI
NATIONAL WEATHER SERVICE KANSAS CITY/PLEASANT HILL MO
700 AM CDT SAT JUL 30 2016

KSZ040-057-103>105-MOZ028-029-037-043-301300-
...KANSAS CITY METROPOLITAN AREA...

CITY           SKY/WX    TMP DP  RH WIND       PRES   REMARKS
K.C. INTL      PTCLDY    65  61  87 NE8       30.02R
6HR MIN TEMP:  62; 6HR MAX TEMP:  69;

K.C. DOWNTOWN  PTCLDY    69  64  84 NE3       30.01R
6HR MIN TEMP:  67; 6HR MAX TEMP:  72;

LEES SUMMIT    PTCLDY    67  64  90 NE3       30.02S
6HR MIN TEMP:  66; 6HR MAX TEMP:  70;

OLATHE - IXD   CLEAR     67  63  87 E3        30.02R
6HR MIN TEMP:  64; 6HR MAX TEMP:  70;

OLATHE - OJC   PTCLDY    66  63  90 CALM      30.02R
6HR MIN TEMP:  65; 6HR MAX TEMP:  73;

LAWRENCE       PTCLDY    63  62  97 CALM      30.01S

$$

MOZ001>008-011>017-020>025-030>033-038>040-044>046-053-054-301300-
...NORTHERN AND CENTRAL MISSOURI...

CITY           SKY/WX    TMP DP  RH WIND       PRES   REMARKS
ST. JOSEPH     FOG       62  61  96 CALM      30.02S VSB 3/4
6HR MIN TEMP:  59; 6HR MAX TEMP:  66;

MOSBY          SUNNY     61  61 100 CALM      30.02R
WHITEMAN AFB   PTCLDY    65  65 100 N3        30.00R
6HR MIN TEMP:  63; 6HR MAX TEMP:  71;

CLINTON        CLEAR     64  64 100 CALM      30.01R
SEDALIA        CLEAR     66  64  93 N3        30.02R
6HR MIN TEMP:  65; 6HR MAX TEMP:  72;

WARSAW         NOT AVBL
CHILLICOTHE      N/A     63  61  93 CALM      30.03R
6HR MIN TEMP:  62; 6HR MAX TEMP:  66;

KIRKSVILLE     CLOUDY    67  65  93 W5        30.02R
6HR MIN TEMP:  62; 6HR MAX TEMP:  67;


$$

MOZ041-047>049-056>058-063>065-088>090-097-301300-
...EASTERN AND SOUTHERN MISSOURI...

CITY           SKY/WX    TMP DP  RH WIND       PRES   REMARKS
ST. LOUIS INTL PTCLDY    73  67  81 W3        29.98R
6HR MIN TEMP:  71; 6HR MAX TEMP:  76;

SPIRIT OF STL  PTCLDY    70  69  97 CALM      29.97R
COLUMBIA       CLEAR     67  65  93 N6        30.00S
JEFFERSON CITY PTCLDY    67  65  93 CALM      29.99R
ROLLA          CLEAR     66  65  96 CALM      30.00R
OSAGE BEACH    MOCLDY    69  68  96 CALM      30.01R
SPRINGFIELD    CLEAR     68  66  93 CALM      30.01R
BRANSON        CLEAR     68  68 100 CALM      30.03R FOG
JOPLIN         CLEAR     69  68  96 CALM      30.01R
WEST PLAINS    MOCLDY    70  66  87 CALM      30.04R

$$

IAZ060-094-KSZ022-034>040-054-083-096-NEZ052-066-093-301300-
...KANSAS...SOUTHEAST NEBRASKA AND IOWA...

CITY           SKY/WX    TMP DP  RH WIND       PRES   REMARKS
TOPEKA         PTCLDY    64  62  93 CALM      30.01R
6HR MIN TEMP:  63; 6HR MAX TEMP:  70;

MANHATTAN      CLEAR     67  65  93 N3        30.00S
EMPORIA        CLEAR     67  65  93 E3        30.00S
CHANUTE        CLEAR     68  67  96 CALM      30.00R FOG
WICHITA        CLOUDY    73  69  87 CALM      30.00R
OMAHA          PTCLDY    60  58  92 NW3       30.02R
LINCOLN        CLEAR     62  60  93 CALM      30.04R
FALLS CITY     PTCLDY    61  61 100 CALM      30.01S
LAMONI         CLOUDY    64  63  96 NW3       30.02R
DES MOINES     PTCLDY    67  64  90 NE3       30.00S

$$




USA.gov is the U.S. government's official web portal to all federal, state and local government web resources and services.